Location: Unspecified
(50.1700°N, 6.8600°E)
Time: 19:33:48
(UTC+00:00)

CZ-4C R/B - Pass Details

Date: 24 January 2019
Orbit: 671 x 1331 km, 63.4° (Epoch: 20 February)

Event Time Altitude Azimuth Distance (km) Brightness Sun altitude
Exits shadow 04:31:04 31° 341° (NNW) 1,564 3.4 -26.4°
Drops below altitude 10° 04:36:52 10° 42° (NE) 2,858 5.4 -25.4°
Sets 04:40:05 0° 52° (NE) 3,931 6.4 -24.9°
